QPF
0.08 0.09 0.11 0.13 0.11 0.10 0.07 0.07 0.06 0.09 0.08 0.06 0.06 0.07 0.10 0.10 0.10 0.09 0.06 0.02 0.02 0.01 0.01 0.02 0.03 0.03 0.03 0.04 0.03 0.03 0.03 0.03 0.03 0.03 0.03 0.04 0.03 0.03 0.03 0.03 0.03 0.02 0.01
0.10 0.10 0.11 0.11 0.09 0.09 0.10 0.08 0.07 0.09 0.09 0.08 0.07 0.09 0.11 0.13 0.13 0.12 0.09 0.06 0.03 0.02 0.01 0.02 0.03 0.04 0.04 0.05 0.05 0.03 0.02 0.02 0.03 0.03 0.03 0.03 0.04 0.04 0.04 0.04 0.03 0.02 0.01
0.09 0.09 0.09 0.08 0.07 0.08 0.09 0.07 0.07 0.08 0.08 0.08 0.10 0.12 0.11 0.12 0.13 0.14 0.14 0.12 0.07 0.04 0.02 0.03 0.04 0.05 0.05 0.06 0.05 0.04 0.03 0.02 0.03 0.03 0.02 0.02 0.03 0.03 0.03 0.03 0.03 0.03 0.03
0.05 0.07 0.07 0.06 0.06 0.07 0.06 0.06 0.06 0.07 0.09 0.11 0.12 0.11 0.10 0.09 0.08 0.10 0.11 0.11 0.09 0.06 0.04 0.03 0.05 0.06 0.06 0.05 0.04 0.04 0.04 0.03 0.03 0.03 0.02 0.03 0.03 0.02 0.02 0.02 0.03 0.02 0.02
0.03 0.04 0.06 0.08 0.07 0.06 0.04 0.04 0.07 0.09 0.10 0.12 0.10 0.08 0.07 0.06 0.05 0.05 0.08 0.07 0.05 0.08 0.07 0.07 0.08 0.08 0.07 0.05 0.05 0.06 0.06 0.04 0.03 0.02 0.02 0.02 0.02 0.02 0.02 0.02 0.02 0.01 0.01
0.03 0.05 0.06 0.06 0.05 0.06 0.06 0.07 0.09 0.10 0.11 0.13 0.10 0.07 0.05 0.03 0.03 0.03 0.04 0.03 0.04 0.06 0.10 0.12 0.12 0.09 0.06 0.05 0.05 0.05 0.07 0.06 0.03 0.03 0.02 0.02 0.01 0.01 0.01 0.01 0.01 0.02 0.02
0.04 0.05 0.07 0.09 0.05 0.06 0.07 0.07 0.09 0.13 0.11 0.12 0.14 0.13 0.09 0.04 0.03 0.02 0.03 0.03 0.03 0.05 0.09 0.13 0.13 0.12 0.09 0.07 0.05 0.05 0.06 0.05 0.04 0.03 0.02 0.02 0.02 0.02 0.02 0.02 0.02 0.03 0.03
0.05 0.06 0.08 0.06 0.06 0.08 0.08 0.07 0.10 0.14 0.13 0.12 0.14 0.14 0.14 0.14 0.09 0.03 0.02 0.02 0.02 0.03 0.05 0.07 0.09 0.08 0.08 0.08 0.06 0.04 0.04 0.04 0.04 0.04 0.03 0.03 0.02 0.02 0.03 0.03 0.05 0.07 0.06
0.05 0.07 0.08 0.08 0.08 0.07 0.10 0.08 0.09 0.12 0.14 0.13 0.12 0.13 0.13 0.15 0.11 0.06 0.04 0.04 0.04 0.05 0.03 0.03 0.03 0.04 0.05 0.06 0.05 0.03 0.02 0.03 0.04 0.05 0.05 0.04 0.03 0.03 0.03 0.03 0.04 0.04 0.04
0.06 0.06 0.05 0.06 0.08 0.08 0.10 0.07 0.11 0.12 0.13 0.13 0.13 0.12 0.10 0.12 0.12 0.10 0.07 0.05 0.06 0.03 0.02 0.02 0.02 0.02 0.02 0.03 0.02 0.02 0.02 0.02 0.03 0.05 0.06 0.05 0.05 0.05 0.04 0.03 0.03 0.04 0.04
0.05 0.05 0.06 0.06 0.06 0.06 0.07 0.08 0.11 0.11 0.11 0.11 0.11 0.10 0.09 0.10 0.08 0.08 0.07 0.04 0.04 0.02 0.02 0.02 0.01 0.01 0.01 0.02 0.03 0.02 0.02 0.01 0.01 0.02 0.04 0.04 0.04 0.04 0.04 0.04 0.04 0.05 0.06
0.07 0.05 0.06 0.06 0.05 0.05 0.06 0.07 0.09 0.09 0.09 0.11 0.11 0.10 0.10 0.08 0.07 0.09 0.08 0.07 0.06 0.03 0.02 0.01 0.01 0.00 0.01 0.01 0.01 0.01 0.02 0.02 0.01 0.01 0.02 0.03 0.04 0.04 0.04 0.03 0.03 0.03 0.04
0.08 0.07 0.09 0.10 0.08 0.07 0.06 0.07 0.10 0.12 0.11 0.09 0.09 0.10 0.10 0.08 0.07 0.08 0.09 0.08 0.07 0.05 0.03 0.01 0.00 0.00 0.00 0.01 0.02 0.02 0.01 0.02 0.01 0.01 0.01 0.02 0.03 0.03 0.03 0.03 0.03 0.04 0.05
0.12 0.11 0.13 0.14 0.08 0.06 0.06 0.09 0.09 0.11 0.12 0.11 0.10 0.11 0.10 0.08 0.07 0.07 0.07 0.07 0.06 0.05 0.05 0.03 0.01 0.00 0.01 0.01 0.04 0.05 0.02 0.02 0.01 0.01 0.01 0.01 0.01 0.01 0.01 0.02 0.02 0.03 0.04
0.10 0.10 0.10 0.10 0.08 0.07 0.08 0.11 0.10 0.10 0.12 0.12 0.12 0.12 0.10 0.09 0.09 0.09 0.09 0.07 0.07 0.05 0.04 0.04 0.02 0.02 0.02 0.02 0.03 0.02 0.03 0.02 0.01 0.01 0.01 0.01 0.02 0.03 0.02 0.02 0.02 0.02 0.02
0.10 0.11 0.12 0.14 0.15 0.10 0.09 0.10 0.09 0.10 0.13 0.14 0.15 0.16 0.14 0.12 0.10 0.08 0.08 0.06 0.06 0.06 0.04 0.03 0.03 0.03 0.04 0.04 0.03 0.02 0.02 0.02 0.02 0.02 0.02 0.02 0.02 0.03 0.03 0.03 0.04 0.03 0.03
0.08 0.10 0.13 0.14 0.14 0.11 0.09 0.08 0.07 0.09 0.12 0.15 0.16 0.16 0.14 0.13 0.11 0.07 0.08 0.09 0.07 0.06 0.06 0.05 0.04 0.06 0.07 0.05 0.03 0.01 0.02 0.02 0.02 0.03 0.02 0.02 0.02 0.02 0.02 0.03 0.04 0.04 0.04
0.04 0.05 0.06 0.08 0.09 0.10 0.10 0.09 0.09 0.11 0.10 0.10 0.11 0.11 0.09 0.09 0.09 0.07 0.09 0.07 0.07 0.07 0.07 0.06 0.06 0.08 0.10 0.07 0.06 0.04 0.02 0.02 0.03 0.05 0.04 0.03 0.02 0.02 0.01 0.02 0.03 0.04 0.05
0.02 0.03 0.05 0.05 0.06 0.09 0.10 0.09 0.06 0.06 0.05 0.05 0.05 0.05 0.06 0.07 0.07 0.08 0.07 0.07 0.06 0.06 0.08 0.06 0.06 0.07 0.09 0.08 0.10 0.07 0.04 0.06 0.06 0.06 0.05 0.04 0.03 0.02 0.01 0.01 0.02 0.03 0.05
0.03 0.03 0.04 0.05 0.05 0.05 0.06 0.07 0.05 0.03 0.03 0.03 0.04 0.04 0.04 0.05 0.06 0.07 0.07 0.08 0.07 0.07 0.07 0.06 0.06 0.06 0.06 0.09 0.09 0.08 0.08 0.07 0.07 0.05 0.05 0.03 0.02 0.02 0.01 0.01 0.01 0.02 0.03
0.03 0.03 0.03 0.04 0.05 0.04 0.03 0.05 0.04 0.03 0.04 0.04 0.04 0.04 0.03 0.04 0.04 0.04 0.04 0.06 0.07 0.07 0.07 0.08 0.09 0.08 0.07 0.09 0.08 0.08 0.09 0.09 0.08 0.06 0.04 0.03 0.02 0.02 0.02 0.02 0.02 0.01 0.01
0.03 0.03 0.03 0.04 0.05 0.05 0.05 0.04 0.05 0.05 0.05 0.05 0.05 0.04 0.04 0.04 0.03 0.03 0.03 0.05 0.07 0.08 0.08 0.10 0.11 0.12 0.11 0.11 0.11 0.11 0.10 0.10 0.08 0.06 0.05 0.04 0.03 0.03 0.02 0.02 0.03 0.03 0.02
0.04 0.04 0.04 0.05 0.05 0.05 0.05 0.03 0.04 0.05 0.05 0.04 0.05 0.05 0.03 0.03 0.04 0.04 0.04 0.05 0.05 0.05 0.06 0.08 0.10 0.11 0.12 0.12 0.11 0.11 0.11 0.09 0.06 0.05 0.06 0.04 0.03 0.03 0.02 0.02 0.03 0.03 0.03
0.05 0.05 0.04 0.04 0.04 0.05 0.04 0.03 0.04 0.04 0.04 0.05 0.05 0.04 0.03 0.03 0.04 0.04 0.04 0.04 0.03 0.03 0.04 0.05 0.04 0.04 0.07 0.07 0.07 0.07 0.08 0.08 0.06 0.05 0.05 0.04 0.03 0.03 0.02 0.03 0.03 0.03 0.03
0.06 0.05 0.05 0.05 0.05 0.05 0.05 0.05 0.05 0.04 0.04 0.04 0.04 0.04 0.03 0.02 0.04 0.04 0.03 0.03 0.02 0.02 0.02 0.02 0.02 0.02 0.04 0.05 0.04 0.05 0.06 0.07 0.06 0.06 0.05 0.05 0.04 0.04 0.04 0.04 0.03 0.04 0.03
0.08 0.07 0.06 0.06 0.06 0.05 0.05 0.06 0.06 0.05 0.05 0.04 0.05 0.04 0.03 0.04 0.05 0.03 0.02 0.03 0.03 0.02 0.02 0.02 0.02 0.02 0.02 0.03 0.03 0.03 0.05 0.07 0.10 0.09 0.08 0.07 0.06 0.06 0.06 0.04 0.04 0.04 0.05
MSLP
1014.08 1014.37 1014.57 1014.69 1014.78 1014.84 1014.91 1014.99 1015.06 1015.10 1015.11 1015.07 1014.98 1014.89 1014.81 1014.80 1014.89 1015.09 1015.40 1015.79 1016.23 1016.65 1017.03 1017.33 1017.56 1017.70 1017.81 1017.89 1017.99 1018.13 1018.31 1018.53 1018.78 1019.03 1019.27 1019.49 1019.68 1019.84 1019.96 1020.07 1020.15 1020.23 1020.31
1013.84 1014.13 1014.33 1014.48 1014.58 1014.67 1014.77 1014.87 1014.98 1015.08 1015.13 1015.13 1015.07 1014.98 1014.88 1014.81 1014.80 1014.88 1015.07 1015.35 1015.69 1016.06 1016.42 1016.74 1017.01 1017.22 1017.39 1017.52 1017.65 1017.79 1017.96 1018.15 1018.36 1018.59 1018.81 1019.03 1019.23 1019.41 1019.55 1019.68 1019.78 1019.87 1019.95
1013.56 1013.85 1014.07 1014.23 1014.36 1014.48 1014.61 1014.76 1014.92 1015.06 1015.17 1015.21 1015.19 1015.09 1014.96 1014.82 1014.70 1014.66 1014.70 1014.83 1015.05 1015.34 1015.66 1015.98 1016.29 1016.56 1016.78 1016.98 1017.14 1017.30 1017.45 1017.61 1017.78 1017.97 1018.18 1018.38 1018.59 1018.78 1018.96 1019.12 1019.25 1019.37 1019.48
1013.29 1013.57 1013.80 1013.98 1014.13 1014.29 1014.46 1014.64 1014.84 1015.04 1015.19 1015.28 1015.28 1015.20 1015.04 1014.83 1014.62 1014.44 1014.33 1014.31 1014.39 1014.56 1014.81 1015.11 1015.43 1015.74 1016.02 1016.27 1016.47 1016.64 1016.79 1016.93 1017.07 1017.22 1017.40 1017.59 1017.79 1018.00 1018.21 1018.40 1018.58 1018.74 1018.88
1013.02 1013.30 1013.53 1013.73 1013.91 1014.09 1014.29 1014.51 1014.74 1014.97 1015.17 1015.30 1015.34 1015.28 1015.11 1014.87 1014.58 1014.28 1014.03 1013.86 1013.80 1013.84 1014.00 1014.24 1014.53 1014.85 1015.16 1015.45 1015.68 1015.88 1016.03 1016.16 1016.28 1016.41 1016.56 1016.73 1016.93 1017.15 1017.38 1017.61 1017.82 1018.01 1018.18
1012.76 1013.04 1013.29 1013.50 1013.71 1013.91 1014.12 1014.36 1014.61 1014.87 1015.10 1015.27 1015.35 1015.32 1015.18 1014.93 1014.60 1014.23 1013.88 1013.58 1013.37 1013.28 1013.32 1013.47 1013.70 1014.00 1014.31 1014.61 1014.87 1015.09 1015.26 1015.40 1015.51 1015.63 1015.76 1015.93 1016.12 1016.34 1016.58 1016.82 1017.05 1017.26 1017.44
1012.49 1012.78 1013.05 1013.29 1013.52 1013.74 1013.96 1014.20 1014.46 1014.73 1014.98 1015.19 1015.32 1015.35 1015.26 1015.04 1014.71 1014.32 1013.90 1013.50 1013.17 1012.96 1012.86 1012.90 1013.05 1013.28 1013.56 1013.86 1014.14 1014.38 1014.58 1014.73 1014.87 1014.99 1015.13 1015.28 1015.46 1015.67 1015.90 1016.13 1016.35 1016.54 1016.71
1012.21 1012.53 1012.82 1013.10 1013.35 1013.59 1013.82 1014.07 1014.32 1014.59 1014.85 1015.09 1015.27 1015.36 1015.33 1015.18 1014.90 1014.53 1014.09 1013.64 1013.23 1012.90 1012.68 1012.59 1012.63 1012.78 1013.00 1013.27 1013.55 1013.81 1014.05 1014.24 1014.41 1014.56 1014.70 1014.86 1015.03 1015.21 1015.40 1015.59 1015.77 1015.93 1016.05
1011.91 1012.25 1012.59 1012.90 1013.20 1013.46 1013.71 1013.95 1014.19 1014.45 1014.71 1014.96 1015.18 1015.33 1015.39 1015.33 1015.13 1014.82 1014.41 1013.95 1013.49 1013.08 1012.75 1012.55 1012.47 1012.52 1012.67 1012.90 1013.16 1013.44 1013.70 1013.94 1014.15 1014.34 1014.50 1014.66 1014.81 1014.96 1015.11 1015.25 1015.36 1015.45 1015.51
1011.55 1011.93 1012.31 1012.69 1013.03 1013.33 1013.60 1013.84 1014.07 1014.31 1014.55 1014.81 1015.05 1015.25 1015.39 1015.42 1015.33 1015.10 1014.76 1014.34 1013.87 1013.42 1013.01 1012.71 1012.53 1012.48 1012.55 1012.72 1012.95 1013.23 1013.52 1013.80 1014.05 1014.27 1014.46 1014.62 1014.76 1014.88 1014.97 1015.04 1015.09 1015.10 1015.07
1011.13 1011.54 1011.98 1012.41 1012.81 1013.17 1013.46 1013.71 1013.93 1014.14 1014.36 1014.60 1014.85 1015.09 1015.28 1015.40 1015.41 1015.29 1015.04 1014.69 1014.25 1013.79 1013.36 1012.99 1012.72 1012.58 1012.57 1012.67 1012.87 1013.13 1013.42 1013.72 1014.00 1014.25 1014.47 1014.64 1014.77 1014.85 1014.90 1014.92 1014.89 1014.83 1014.73
1010.65 1011.09 1011.57 1012.06 1012.52 1012.92 1013.26 1013.52 1013.73 1013.92 1014.11 1014.32 1014.56 1014.80 1015.04 1015.22 1015.32 1015.31 1015.16 1014.90 1014.53 1014.11 1013.67 1013.27 1012.95 1012.74 1012.65 1012.68 1012.82 1013.04 1013.32 1013.62 1013.91 1014.18 1014.41 1014.59 1014.71 1014.79 1014.81 1014.78 1014.71 1014.60 1014.45
1010.10 1010.56 1011.08 1011.61 1012.13 1012.58 1012.95 1013.23 1013.44 1013.61 1013.77 1013.94 1014.15 1014.39 1014.64 1014.87 1015.04 1015.12 1015.08 1014.92 1014.64 1014.28 1013.88 1013.49 1013.14 1012.88 1012.73 1012.69 1012.77 1012.93 1013.16 1013.43 1013.71 1013.98 1014.21 1014.39 1014.52 1014.60 1014.62 1014.58 1014.49 1014.36 1014.18
1009.52 1009.98 1010.51 1011.07 1011.62 1012.11 1012.52 1012.83 1013.04 1013.20 1013.33 1013.47 1013.64 1013.86 1014.11 1014.36 1014.58 1014.73 1014.79 1014.73 1014.56 1014.29 1013.96 1013.60 1013.26 1012.98 1012.78 1012.68 1012.67 1012.76 1012.92 1013.14 1013.37 1013.61 1013.84 1014.02 1014.17 1014.26 1014.30 1014.29 1014.22 1014.10 1013.92
1008.93 1009.37 1009.90 1010.47 1011.04 1011.55 1011.98 1012.31 1012.54 1012.70 1012.81 1012.92 1013.07 1013.25 1013.49 1013.75 1014.00 1014.21 1014.35 1014.39 1014.33 1014.16 1013.91 1013.62 1013.31 1013.03 1012.80 1012.63 1012.56 1012.56 1012.63 1012.76 1012.94 1013.13 1013.33 1013.52 1013.68 1013.81 1013.89 1013.92 1013.89 1013.81 1013.67
1008.36 1008.77 1009.28 1009.84 1010.40 1010.93 1011.37 1011.72 1011.97 1012.13 1012.24 1012.34 1012.46 1012.63 1012.85 1013.11 1013.38 1013.64 1013.85 1013.97 1014.01 1013.94 1013.79 1013.58 1013.32 1013.06 1012.81 1012.60 1012.45 1012.37 1012.34 1012.38 1012.48 1012.61 1012.77 1012.95 1013.13 1013.29 1013.42 1013.51 1013.55 1013.52 1013.43
1007.83 1008.22 1008.70 1009.22 1009.77 1010.28 1010.73 1011.09 1011.35 1011.53 1011.66 1011.77 1011.89 1012.05 1012.27 1012.53 1012.81 1013.10 1013.36 1013.56 1013.67 1013.71 1013.65 1013.52 1013.33 1013.10 1012.86 1012.63 1012.42 1012.25 1012.14 1012.08 1012.09 1012.15 1012.27 1012.43 1012.61 1012.81 1012.99 1013.14 1013.24 1013.27 1013.22
1007.35 1007.72 1008.16 1008.65 1009.16 1009.65 1010.09 1010.45 1010.73 1010.94 1011.10 1011.24 1011.39 1011.56 1011.79 1012.05 1012.35 1012.66 1012.95 1013.20 1013.39 1013.50 1013.54 1013.49 1013.37 1013.19 1012.97 1012.73 1012.48 1012.26 1012.07 1011.93 1011.85 1011.84 1011.91 1012.04 1012.21 1012.42 1012.64 1012.83 1012.98 1013.05 1013.04
1006.90 1007.26 1007.67 1008.12 1008.58 1009.04 1009.47 1009.84 1010.14 1010.39 1010.59 1010.78 1010.97 1011.18 1011.43 1011.71 1012.02 1012.35 1012.66 1012.95 1013.19 1013.36 1013.46 1013.49 1013.43 1013.31 1013.13 1012.90 1012.65 1012.38 1012.14 1011.94 1011.79 1011.72 1011.73 1011.82 1011.98 1012.18 1012.41 1012.62 1012.79 1012.89 1012.90
1006.44 1006.80 1007.19 1007.61 1008.04 1008.47 1008.88 1009.25 1009.58 1009.87 1010.13 1010.38 1010.63 1010.90 1011.19 1011.50 1011.83 1012.16 1012.49 1012.79 1013.05 1013.27 1013.42 1013.50 1013.51 1013.44 1013.30 1013.11 1012.87 1012.60 1012.33 1012.09 1011.90 1011.77 1011.73 1011.78 1011.90 1012.08 1012.29 1012.50 1012.66 1012.76 1012.77
1005.93 1006.31 1006.69 1007.09 1007.50 1007.91 1008.31 1008.69 1009.06 1009.40 1009.73 1010.05 1010.37 1010.71 1011.04 1011.39 1011.74 1012.08 1012.40 1012.70 1012.97 1013.20 1013.38 1013.50 1013.55 1013.54 1013.45 1013.30 1013.09 1012.85 1012.58 1012.33 1012.11 1011.96 1011.88 1011.88 1011.96 1012.10 1012.27 1012.45 1012.58 1012.65 1012.65
1005.36 1005.77 1006.17 1006.57 1006.97 1007.37 1007.78 1008.18 1008.59 1008.99 1009.39 1009.79 1010.19 1010.59 1010.98 1011.36 1011.73 1012.07 1012.38 1012.67 1012.92 1013.14 1013.32 1013.45 1013.54 1013.56 1013.52 1013.42 1013.26 1013.06 1012.82 1012.58 1012.37 1012.20 1012.09 1012.06 1012.10 1012.20 1012.32 1012.44 1012.53 1012.57 1012.53
1004.76 1005.21 1005.63 1006.05 1006.46 1006.88 1007.31 1007.75 1008.19 1008.66 1009.13 1009.61 1010.08 1010.55 1010.99 1011.41 1011.78 1012.11 1012.41 1012.66 1012.87 1013.06 1013.22 1013.35 1013.44 1013.49 1013.49 1013.44 1013.33 1013.17 1012.98 1012.78 1012.59 1012.43 1012.32 1012.27 1012.27 1012.32 1012.40 1012.47 1012.51 1012.50 1012.43
1004.20 1004.68 1005.14 1005.59 1006.04 1006.49 1006.95 1007.43 1007.93 1008.46 1008.99 1009.54 1010.08 1010.59 1011.08 1011.51 1011.89 1012.20 1012.45 1012.66 1012.83 1012.96 1013.08 1013.18 1013.26 1013.31 1013.34 1013.32 1013.26 1013.16 1013.03 1012.89 1012.74 1012.61 1012.51 1012.45 1012.44 1012.46 1012.49 1012.52 1012.51 1012.47 1012.37
1003.77 1004.29 1004.79 1005.29 1005.78 1006.27 1006.78 1007.31 1007.85 1008.42 1009.01 1009.60 1010.18 1010.73 1011.23 1011.66 1012.02 1012.31 1012.52 1012.67 1012.77 1012.85 1012.91 1012.97 1013.02 1013.06 1013.09 1013.10 1013.08 1013.03 1012.96 1012.87 1012.78 1012.69 1012.63 1012.58 1012.57 1012.57 1012.58 1012.57 1012.54 1012.47 1012.35
1003.57 1004.12 1004.67 1005.21 1005.75 1006.29 1006.84 1007.41 1007.99 1008.59 1009.20 1009.81 1010.40 1010.95 1011.44 1011.85 1012.18 1012.42 1012.58 1012.67 1012.71 1012.72 1012.72 1012.72 1012.73 1012.75 1012.77 1012.79 1012.80 1012.80 1012.78 1012.75 1012.72 1012.68 1012.66 1012.65 1012.64 1012.65 1012.65 1012.63 1012.58 1012.49 1012.37
Thickness
5771 5770 5768 5767 5767 5767 5766 5765 5765 5764 5763 5764 5764 5764 5764 5764 5763 5761 5758 5756 5755 5753 5752 5750 5749 5747 5746 5744 5743 5741 5740 5739 5738 5736 5735 5733 5732 5730 5729 5727 5725 5723 5722
5772 5770 5768 5767 5768 5767 5767 5766 5765 5764 5763 5763 5763 5763 5763 5763 5762 5760 5758 5756 5755 5754 5752 5751 5749 5747 5746 5744 5743 5741 5740 5739 5738 5737 5735 5734 5732 5731 5729 5727 5725 5723 5722
5771 5770 5768 5767 5768 5767 5767 5766 5765 5764 5763 5763 5762 5763 5763 5763 5761 5760 5758 5757 5755 5754 5752 5751 5749 5748 5746 5745 5743 5742 5741 5739 5738 5737 5736 5735 5733 5731 5729 5727 5725 5724 5722
5771 5770 5769 5768 5768 5767 5766 5765 5764 5762 5761 5761 5761 5762 5762 5762 5761 5760 5759 5758 5756 5755 5753 5751 5750 5748 5747 5745 5744 5743 5741 5740 5739 5738 5736 5735 5734 5732 5730 5728 5726 5725 5723
5772 5771 5770 5769 5768 5767 5766 5765 5764 5762 5759 5758 5759 5760 5761 5761 5761 5761 5759 5758 5757 5756 5753 5752 5750 5749 5747 5746 5745 5744 5742 5741 5739 5738 5737 5735 5734 5732 5730 5728 5726 5725 5723
5773 5772 5770 5769 5768 5767 5765 5764 5762 5761 5759 5758 5758 5758 5758 5760 5760 5759 5759 5759 5758 5756 5754 5753 5751 5749 5748 5747 5745 5744 5742 5741 5739 5738 5737 5735 5734 5732 5730 5728 5726 5725 5723
5774 5773 5771 5769 5768 5766 5764 5763 5761 5758 5757 5758 5753 5750 5754 5759 5759 5759 5758 5758 5757 5756 5754 5753 5752 5750 5749 5747 5745 5744 5742 5740 5739 5738 5736 5735 5733 5732 5730 5728 5727 5725 5723
5775 5774 5771 5769 5767 5765 5763 5762 5760 5757 5756 5757 5751 5745 5742 5746 5753 5757 5756 5755 5755 5755 5754 5754 5752 5751 5749 5747 5745 5744 5742 5741 5739 5737 5736 5734 5733 5731 5729 5728 5726 5724 5722
5776 5774 5772 5769 5768 5766 5763 5761 5760 5756 5753 5755 5755 5748 5740 5737 5743 5750 5753 5753 5753 5753 5753 5753 5752 5751 5749 5747 5746 5744 5742 5741 5739 5737 5736 5734 5732 5730 5729 5727 5725 5723 5721
5777 5774 5771 5770 5768 5766 5764 5762 5761 5759 5756 5751 5753 5754 5752 5749 5741 5738 5745 5750 5751 5751 5751 5752 5752 5751 5750 5748 5746 5744 5742 5741 5739 5737 5735 5733 5731 5729 5727 5726 5724 5722 5720
5777 5775 5772 5770 5768 5766 5764 5763 5762 5760 5757 5754 5752 5752 5750 5749 5748 5740 5736 5741 5745 5748 5750 5750 5751 5750 5749 5748 5746 5744 5742 5740 5738 5736 5735 5733 5731 5729 5727 5725 5723 5721 5720
5777 5775 5772 5769 5767 5765 5764 5763 5761 5759 5758 5756 5754 5752 5749 5746 5744 5742 5738 5738 5739 5744 5747 5748 5749 5749 5749 5748 5746 5744 5742 5740 5738 5736 5734 5732 5730 5728 5726 5724 5722 5720 5719
5775 5773 5771 5768 5766 5765 5763 5762 5760 5758 5757 5755 5753 5752 5750 5750 5749 5745 5740 5737 5737 5740 5743 5746 5748 5748 5748 5747 5745 5744 5742 5740 5738 5736 5734 5731 5729 5727 5725 5723 5721 5719 5717
5775 5773 5771 5767 5764 5764 5763 5761 5759 5757 5755 5753 5752 5751 5750 5750 5749 5746 5742 5737 5731 5733 5737 5740 5746 5747 5746 5745 5744 5741 5739 5738 5736 5735 5732 5730 5728 5726 5724 5722 5720 5717 5715
5776 5773 5770 5766 5763 5762 5760 5759 5756 5754 5753 5751 5750 5749 5747 5748 5748 5746 5744 5740 5732 5726 5729 5736 5740 5744 5744 5743 5741 5739 5738 5736 5735 5733 5731 5729 5726 5724 5722 5720 5717 5715 5713
5773 5771 5768 5765 5762 5759 5757 5755 5753 5752 5750 5748 5747 5745 5743 5743 5744 5744 5742 5740 5738 5732 5729 5735 5737 5740 5741 5740 5738 5736 5735 5734 5732 5731 5729 5727 5724 5722 5720 5718 5715 5713 5711
5770 5767 5765 5762 5758 5755 5753 5752 5750 5749 5746 5745 5744 5741 5739 5739 5738 5739 5738 5737 5735 5733 5728 5731 5735 5736 5736 5735 5734 5733 5731 5730 5729 5728 5726 5723 5721 5719 5717 5715 5712 5710 5708
5766 5764 5762 5759 5755 5753 5751 5748 5746 5745 5743 5740 5739 5738 5736 5736 5733 5733 5732 5732 5731 5731 5727 5725 5728 5729 5730 5731 5729 5728 5727 5727 5726 5724 5722 5720 5718 5715 5713 5711 5709 5707 5704
5763 5760 5758 5755 5752 5750 5748 5746 5743 5743 5740 5738 5737 5734 5733 5731 5728 5728 5727 5727 5727 5728 5726 5723 5722 5724 5725 5725 5723 5722 5722 5721 5720 5719 5717 5715 5713 5711 5709 5707 5705 5702 5700
5758 5756 5754 5752 5750 5747 5745 5743 5741 5739 5738 5736 5734 5732 5731 5728 5726 5724 5723 5723 5722 5721 5720 5719 5717 5718 5718 5719 5717 5714 5713 5714 5713 5713 5711 5709 5707 5705 5703 5701 5699 5697 5695
5755 5752 5750 5748 5746 5744 5741 5739 5737 5736 5734 5732 5731 5729 5728 5726 5724 5722 5720 5718 5717 5715 5714 5712 5711 5711 5710 5709 5708 5708 5706 5706 5706 5706 5704 5703 5701 5698 5696 5694 5692 5691 5689
5751 5748 5746 5743 5741 5739 5736 5734 5732 5731 5729 5727 5725 5724 5723 5722 5720 5718 5716 5715 5713 5710 5708 5706 5705 5703 5703 5703 5703 5702 5699 5696 5694 5699 5697 5695 5695 5693 5692 5690 5688 5686 5683
5745 5742 5740 5738 5735 5733 5731 5728 5726 5725 5723 5721 5720 5718 5719 5719 5716 5713 5712 5711 5709 5708 5706 5703 5700 5700 5699 5699 5697 5695 5694 5692 5691 5693 5690 5686 5687 5686 5686 5686 5684 5681 5678
5739 5736 5733 5731 5729 5727 5724 5722 5720 5718 5717 5716 5714 5713 5712 5711 5710 5707 5706 5705 5703 5703 5701 5700 5698 5698 5697 5695 5693 5691 5690 5688 5688 5687 5685 5679 5679 5679 5680 5679 5678 5676 5673
5732 5730 5728 5725 5722 5719 5717 5714 5711 5711 5710 5709 5709 5707 5706 5704 5701 5699 5698 5696 5696 5696 5697 5696 5695 5693 5691 5690 5688 5684 5682 5678 5676 5676 5677 5674 5673 5671 5671 5670 5670 5669 5667
5725 5723 5721 5718 5715 5712 5709 5706 5703 5703 5702 5701 5701 5700 5698 5696 5694 5691 5690 5689 5687 5688 5688 5688 5687 5686 5685 5684 5682 5679 5676 5671 5669 5668 5670 5666 5664 5662 5660 5663 5662 5661 5659